Weather History for Istanbul, Turkey

Change the Weather History Date:

Friday, March 29, 2013

  Actual Average Record
Temperature  
Mean Temperature 48 °F -  
Max Temperature 55 °F 59 °F 66 °F (2006)
Min Temperature 42 °F 45 °F 37 °F (2003)
Degree Days  
Heating Degree Days 16    
Moisture  
Dew Point 40 °F    
Average Humidity 70    
Maximum Humidity 82    
Minimum Humidity 56    
Precipitation  
Precipitation 0.02 in - - ()
Sea Level Pressure  
Sea Level Pressure 30.12 in    
Wind  
Wind Speed 7 mph ()    
Max Wind Speed 10 mph    
Max Gust Speed -    
Visibility 5.1 miles    
Events Rain    
Averages and records for this station are not official NWS values.
T = Trace of Precipitation, MM = Missing Value Source: Averaged Metar Reports

Daily Weather History Graph

Daily Weather History Graph

Search for Another Location

Airport:

Trip Planner

Search our weather history database for the weather conditions in past years. The results will help you decide how hot, cold, wet, or windy it might be!

Date:

Astronomy

Mar. 29, 2013 Rise Set
Actual Time 5:53 AM EET 6:26 PM EET
Civil Twilight 5:25 AM EET 6:54 PM EET
Nautical Twilight 4:53 AM EET 7:26 PM EET
Astronomical Twilight 4:19 AM EET 8:00 PM EET
Moon 9:05 PM EET (3/29) 6:46 AM EET (3/29)
Length of Visible Light 13h 28m
Length of Day
12h 33m
Waning Gibbous, 95% of the Moon is Illuminated
Mar 29
Waning Gibbous
Apr 3
Last Quarter
Apr 10
New
Apr 18
First Quarter
Apr 25
Full

Hourly Weather History & Observations

Time (EET) Temp. Windchill Dew Point Humidity Pressure Visibility Wind Dir Wind Speed Gust Speed Precip Events Conditions
12:20 AM 44.6 °F 39.7 °F 35.6 °F 71% 30.18 in 3.7 mi NE 9.2 mph - N/A   Scattered Clouds
12:50 AM 44.6 °F 39.7 °F 35.6 °F 71% 30.18 in 3.7 mi ENE 9.2 mph - N/A   Scattered Clouds
1:20 AM 44.6 °F 40.2 °F 35.6 °F 71% 30.18 in 3.7 mi Variable 8.1 mph - N/A   Scattered Clouds
1:50 AM 44.6 °F 40.2 °F 35.6 °F 71% 30.18 in 3.7 mi ENE 8.1 mph - N/A   Partly Cloudy
2:00 AM 44 °F - 35 °F 63% 30.20 in 4 mi ENE 8.1 mph - -   Mist
2:20 AM 42.8 °F 39.3 °F 35.6 °F 76% 30.18 in 3.7 mi ENE 5.8 mph - N/A   Unknown
2:50 AM 42.8 °F 39.3 °F 35.6 °F 76% 30.18 in 3.7 mi ENE 5.8 mph - N/A   Unknown
3:20 AM 42.8 °F 38.6 °F 35.6 °F 76% 30.18 in 3.7 mi NE 6.9 mph - N/A   Unknown
3:50 AM 42.8 °F 40.1 °F 35.6 °F 76% 30.15 in 3.7 mi NE 4.6 mph - N/A   Unknown
4:20 AM 42.8 °F 37.5 °F 35.6 °F 76% 30.15 in 3.7 mi NE 9.2 mph - N/A   Unknown
4:50 AM 42.8 °F 38.0 °F 35.6 °F 76% 30.15 in 3.7 mi ENE 8.1 mph - N/A   Unknown
5:20 AM 42.8 °F 37.5 °F 35.6 °F 76% 30.15 in 3.7 mi ENE 9.2 mph - N/A   Unknown
5:50 AM 42.8 °F 38.6 °F 35.6 °F 76% 30.15 in 3.7 mi ENE 6.9 mph - N/A   Unknown
6:20 AM 42.8 °F 38.0 °F 35.6 °F 76% 30.15 in 3.7 mi ENE 8.1 mph - N/A   Unknown
6:50 AM 44.6 °F 40.2 °F 35.6 °F 71% 30.18 in 3.7 mi NE 8.1 mph - N/A   Unknown
7:20 AM 46.4 °F 42.4 °F 37.4 °F 71% 30.15 in 3.7 mi ENE 8.1 mph - N/A   Unknown
7:50 AM 46.4 °F 41.5 °F 37.4 °F 71% 30.15 in 4.3 mi East 10.4 mph - N/A   Unknown
8:00 AM 46 °F - 37 °F 62% 30.18 in 4 mi East 10.4 mph - -   Mist
8:20 AM 48.2 °F - 37.4 °F 66% 30.18 in - East 8.1 mph - N/A   Clear
8:50 AM 48.2 °F - 37.4 °F 66% 30.18 in - East 6.9 mph - N/A   Clear
9:20 AM 51.8 °F - 39.2 °F 62% 30.15 in - Variable 6.9 mph - N/A   Clear
9:50 AM 51.8 °F - 39.2 °F 62% 30.15 in - Variable 6.9 mph - N/A   Clear
10:20 AM 53.6 °F - 41.0 °F 62% 30.15 in - ENE 5.8 mph - N/A   Clear
10:50 AM 53.6 °F - 41.0 °F 62% 30.15 in - ESE 9.2 mph - N/A   Clear
11:20 AM 53.6 °F - 41.0 °F 62% 30.15 in 6.2 mi ESE 8.1 mph - N/A   Scattered Clouds
11:50 AM 55.4 °F - 42.8 °F 63% 30.15 in 6.2 mi ESE 6.9 mph - N/A   Scattered Clouds
12:20 PM 55.4 °F - 41.0 °F 58% 30.12 in 6.2 mi East 8.1 mph - N/A   Scattered Clouds
12:50 PM 53.6 °F - 42.8 °F 67% 30.12 in 6.2 mi SSE 8.1 mph - N/A   Scattered Clouds
1:20 PM 53.6 °F - 41.0 °F 62% 30.12 in 6.2 mi SSE 8.1 mph - N/A   Scattered Clouds
1:50 PM 55.4 °F - 44.6 °F 67% 30.09 in 6.2 mi South 6.9 mph - N/A   Scattered Clouds
2:00 PM 55 °F - 44 °F 56% 30.12 in 6 mi South 6.9 mph - -   Scattered Clouds
2:20 PM 53.6 °F - 44.6 °F 72% 30.09 in 6.2 mi South 6.9 mph - N/A   Scattered Clouds
2:50 PM 53.6 °F - 42.8 °F 67% 30.09 in 6.2 mi SSW 4.6 mph - N/A   Scattered Clouds
3:20 PM 53.6 °F - 44.6 °F 72% 30.09 in 6.2 mi SW 5.8 mph - N/A   Scattered Clouds
3:50 PM 53.6 °F - 42.8 °F 67% 30.09 in 6.2 mi SW 3.5 mph - N/A   Scattered Clouds
4:20 PM 51.8 °F - 42.8 °F 71% 30.09 in 6.2 mi SSW 3.5 mph - N/A   Scattered Clouds
4:50 PM 51.8 °F - 42.8 °F 71% 30.06 in 6.2 mi Variable 2.3 mph - N/A   Mostly Cloudy
5:20 PM 51.8 °F - 44.6 °F 76% 30.09 in 4.3 mi Variable 1.2 mph - N/A Rain Light Rain Showers
5:50 PM 51.8 °F - 41.0 °F 67% 30.09 in 4.3 mi NNE 9.2 mph - N/A Rain Light Rain Showers
6:20 PM 50.0 °F - 41.0 °F 71% 30.09 in 4.3 mi NNE 9.2 mph - N/A Rain Light Rain Showers
6:50 PM 48.2 °F - 41.0 °F 76% 30.06 in 6.2 mi NNE 10.4 mph - N/A Rain Light Rain Showers
7:20 PM 48.2 °F - 41.0 °F 76% 30.06 in 6.2 mi NNE 6.9 mph - N/A Rain Light Rain Showers
7:50 PM 50.0 °F - 41.0 °F 71% 30.06 in 6.2 mi NE 6.9 mph - N/A Rain Light Rain Showers
8:00 PM 49 °F - 41 °F 66% 30.09 in 6 mi NE 6.9 mph - - Rain Light Rain Showers
8:20 PM 51.8 °F - 41.0 °F 67% 30.06 in 6.2 mi ENE 5.8 mph - N/A   Mostly Cloudy
8:50 PM 51.8 °F - 41.0 °F 67% 30.06 in 6.2 mi Variable 4.6 mph - N/A   Mostly Cloudy
9:20 PM 50.0 °F - 42.8 °F 76% 30.06 in 6.2 mi Variable 3.5 mph - N/A   Mostly Cloudy
9:50 PM 50.0 °F - 41.0 °F 71% 30.06 in 6.2 mi Variable 4.6 mph - N/A   Mostly Cloudy
10:20 PM 48.2 °F - 42.8 °F 82% 30.04 in 6.2 mi NNW 4.6 mph - N/A   Mostly Cloudy
10:50 PM 48.2 °F - 42.8 °F 82% 30.04 in 6.2 mi NNW 5.8 mph - N/A   Mostly Cloudy
11:20 PM 48.2 °F - 42.8 °F 82% 30.04 in 6.2 mi NNW 5.8 mph - N/A   Mostly Cloudy
11:50 PM 48.2 °F - 42.8 °F 82% 30.04 in 6.2 mi North 8.1 mph - N/A   Mostly Cloudy